STARLINK-32315, 60740

Orbit data source: Space-Track

STARLINK-32315, 60740 is a payload satellite owned by SpaceX/Seattle (US) in LEO that was launched on Wed, 28 Aug 2024 UTC via an FALCON 9 launch vehicle from the Air Force Eastern Test Range (AFETR). Payloads include a variety of satellites, spacecraft, and rockets equipped with specific instruments for various scientific and technological missions. These include communications satellites like Starlink; space stations such as the ISS; scientific satellites like the Hubble; Earth observation satellites from companies like Planet Labs, Umbra, and HawkEye 360; GPS; miniature CubeSats for education and research; and military/defense satellites.

Loading next visibility...
STARLINK-32315 details
Identifier
60740, 2024-152W
Orbit
LEO
Last TLE update23 hours ago
Origin
Flag of USSpaceX/Seattle (US)
ManufacturerSpaceX/Seattle
MissionOperational spacecraft
Bus & MotorSTARLINK V2M, Unknown motor
Mass730 kg wet, ~700 kg dry
Launch date (UTC)
2024-08-28 (5 months ago)
Launch vehicle
FALCON 9
Launch site
Air Force Eastern Test Range (AFETR)
Object type
Payload
Rocket body
Debris
Shape & HBRUnknown
Radar Cross SectionLarge (>1 m²)

Expand to show TLE details & history

TLE from 23 hours ago
0 STARLINK-32315
1 60740U 24152W   25014.53109205  .00000449  00000-0  27289-4 0  9997
2 60740  53.1600  55.5300 0001156  84.7490 275.3642 15.30194857 22564
Epoch: 2025-01-14T12:44Z
Definitive object data (Epoch: 2025-01-14T12:44:46.353Z)
Latitude-0.00006°
Longitude110.10037°
Altitude476.056 km
Speed7.629 km/s
True Right ascension03h 42m 07s
True Declination0° 00' 00"
Sunlit
Object was in full shadow at TLE epoch
Visualization TLE readout
Latitude-52.07337°
Longitude32.64665°
Altitude494.065 km
Speed7.617 km/s
Apparent Right ascension23h 38m 15s
Apparent Declination-47° 04' 18"
Sunlit
Object is in daylight
Visualization observer readout
Local Sidereal Time12:35:01
Azimuth129.549° SE
Elevation-77.492°
Doppler factor1
Orbital elements
Apogee altitude476.279 km
Perigee altitude474.695 km
Semi-major axis6,853.624 km
Eccentricity0.0001156
Inclination53.16°
RAAN55.53°
Arg. of periapsis84.749°
True anomaly275.35101°
Mean anomaly275.3642°
Eccentric anomaly275.35761°
Mean motion3.82528 °/min
BSTAR0.000027289
Orbital period94.11 mins
Loading maneuver chart data...
Loading historical data...
Loading historical data...
Loading historical data...
Loading historical data...
Loading historical data...
Loading historical data...
Loading historical data...

STARLINK-32315 Visibility forecast

Observer location: undefined°, undefined

Span
Click to sort rows by Start time (UTC) header in descending order
Start Az.
Max El. time (UTC)
Max El. Az.
Max El.
End time (UTC)
End Az.
5 mins2025-01-15 12:47:45.043Z286.048° WNW2025-01-15 12:49:45.043Z243.152° WSW28.874°2025-01-15 12:52:45.043Z166.72° S
4 mins2025-01-16 04:06:45.043Z163.45° S2025-01-16 04:07:45.043Z138.31° SSE23.378°2025-01-16 04:10:45.043Z76.355° E
5 mins2025-01-16 05:43:45.043Z269.366° W2025-01-16 05:45:45.043Z325.22° NNW31.578°2025-01-16 05:48:45.043Z33.914° NE
5 mins2025-01-16 10:40:45.043Z341.931° N2025-01-16 10:42:45.043Z30.132° NE24.852°2025-01-16 10:45:45.043Z88.37° E
|